QPF
0.00 0.00 0.00 0.00 0.00 0.00 0.00 0.00 0.00 0.00 0.01 0.01 0.00 0.00 0.00 0.00 0.00 0.00 0.00 0.00 0.00 0.00 0.00 0.00 0.01 0.01 0.01 0.02 0.02 0.01 0.01 0.01 0.01 0.01 0.01 0.01 0.01 0.01 0.01 0.01 0.01 0.01 0.01
0.00 0.00 0.00 0.00 0.00 0.00 0.00 0.00 0.00 0.00 0.00 0.00 0.00 0.00 0.00 0.00 0.00 0.00 0.00 0.00 0.00 0.00 0.00 0.00 0.00 0.01 0.01 0.02 0.01 0.01 0.01 0.01 0.01 0.01 0.02 0.02 0.03 0.02 0.01 0.00 0.00 0.00 0.01
0.00 0.00 0.00 0.00 0.00 0.00 0.00 0.00 0.00 0.00 0.00 0.00 0.00 0.00 0.00 0.00 0.00 0.00 0.00 0.00 0.00 0.00 0.00 0.00 0.01 0.01 0.01 0.01 0.01 0.01 0.01 0.01 0.01 0.02 0.03 0.02 0.03 0.03 0.02 0.01 0.01 0.01 0.01
0.00 0.00 0.00 0.00 0.00 0.00 0.00 0.00 0.00 0.00 0.00 0.00 0.00 0.00 0.00 0.00 0.00 0.00 0.00 0.00 0.00 0.00 0.00 0.00 0.00 0.01 0.01 0.01 0.01 0.01 0.01 0.01 0.02 0.02 0.01 0.01 0.02 0.02 0.01 0.01 0.01 0.01 0.01
0.00 0.00 0.00 0.00 0.00 0.00 0.00 0.00 0.00 0.00 0.00 0.00 0.00 0.00 0.00 0.00 0.00 0.00 0.00 0.00 0.00 0.00 0.00 0.00 0.00 0.00 0.01 0.01 0.01 0.01 0.01 0.02 0.03 0.01 0.01 0.01 0.02 0.03 0.01 0.01 0.00 0.00 0.00
0.00 0.00 0.00 0.00 0.00 0.00 0.00 0.00 0.00 0.00 0.00 0.00 0.00 0.00 0.00 0.00 0.00 0.00 0.00 0.00 0.00 0.00 0.00 0.00 0.00 0.00 0.00 0.01 0.01 0.02 0.02 0.03 0.03 0.01 0.01 0.01 0.02 0.03 0.02 0.01 0.01 0.01 0.01
0.01 0.01 0.02 0.02 0.01 0.01 0.01 0.00 0.00 0.00 0.00 0.00 0.00 0.00 0.00 0.00 0.00 0.00 0.00 0.00 0.00 0.00 0.00 0.00 0.00 0.00 0.01 0.01 0.01 0.02 0.02 0.03 0.02 0.02 0.01 0.01 0.02 0.03 0.02 0.02 0.02 0.02 0.01
0.06 0.03 0.03 0.04 0.04 0.04 0.03 0.01 0.01 0.01 0.01 0.01 0.01 0.01 0.01 0.01 0.00 0.00 0.00 0.00 0.00 0.00 0.00 0.00 0.00 0.00 0.00 0.01 0.01 0.01 0.03 0.03 0.01 0.01 0.01 0.01 0.02 0.03 0.03 0.02 0.03 0.02 0.02
0.06 0.05 0.06 0.06 0.06 0.05 0.03 0.02 0.02 0.02 0.02 0.01 0.02 0.02 0.01 0.01 0.01 0.00 0.00 0.00 0.00 0.00 0.00 0.01 0.00 0.00 0.00 0.01 0.01 0.01 0.03 0.02 0.02 0.02 0.01 0.02 0.02 0.03 0.03 0.02 0.02 0.02 0.02
0.04 0.05 0.07 0.07 0.07 0.08 0.07 0.05 0.05 0.04 0.03 0.02 0.02 0.02 0.01 0.01 0.01 0.01 0.01 0.00 0.01 0.01 0.01 0.01 0.01 0.00 0.01 0.01 0.01 0.02 0.03 0.01 0.01 0.02 0.02 0.01 0.03 0.05 0.05 0.03 0.02 0.01 0.01
0.05 0.06 0.06 0.07 0.10 0.12 0.12 0.09 0.07 0.06 0.04 0.03 0.03 0.03 0.02 0.02 0.01 0.01 0.01 0.01 0.01 0.01 0.01 0.01 0.01 0.01 0.01 0.01 0.02 0.03 0.02 0.00 0.01 0.03 0.01 0.01 0.03 0.05 0.04 0.03 0.02 0.02 0.02
0.07 0.07 0.08 0.09 0.10 0.12 0.13 0.12 0.08 0.06 0.06 0.04 0.04 0.04 0.03 0.03 0.02 0.02 0.02 0.02 0.01 0.01 0.02 0.02 0.01 0.01 0.01 0.00 0.01 0.02 0.01 0.01 0.01 0.02 0.01 0.02 0.04 0.05 0.05 0.03 0.03 0.03 0.03
0.08 0.07 0.08 0.09 0.06 0.07 0.10 0.13 0.12 0.07 0.06 0.06 0.05 0.05 0.05 0.05 0.04 0.04 0.04 0.04 0.04 0.03 0.03 0.02 0.02 0.01 0.01 0.01 0.00 0.00 0.01 0.01 0.01 0.01 0.01 0.02 0.04 0.07 0.08 0.04 0.03 0.04 0.04
0.06 0.06 0.05 0.06 0.06 0.08 0.09 0.11 0.13 0.11 0.10 0.09 0.08 0.08 0.07 0.07 0.08 0.07 0.07 0.06 0.06 0.05 0.04 0.03 0.02 0.02 0.02 0.02 0.01 0.01 0.02 0.01 0.02 0.02 0.02 0.03 0.04 0.06 0.07 0.07 0.05 0.04 0.04
0.04 0.04 0.05 0.07 0.08 0.10 0.12 0.15 0.17 0.18 0.16 0.14 0.11 0.09 0.08 0.08 0.07 0.07 0.09 0.09 0.09 0.08 0.05 0.04 0.03 0.02 0.03 0.04 0.03 0.03 0.04 0.04 0.03 0.03 0.03 0.04 0.04 0.04 0.07 0.08 0.07 0.06 0.05
0.04 0.05 0.06 0.07 0.10 0.11 0.15 0.22 0.26 0.22 0.20 0.20 0.18 0.14 0.12 0.09 0.08 0.08 0.08 0.08 0.09 0.12 0.12 0.11 0.07 0.05 0.04 0.06 0.07 0.07 0.07 0.06 0.05 0.05 0.04 0.03 0.03 0.05 0.08 0.09 0.08 0.08 0.07
0.03 0.04 0.06 0.08 0.12 0.19 0.28 0.30 0.31 0.30 0.26 0.25 0.22 0.17 0.13 0.10 0.10 0.11 0.10 0.08 0.08 0.11 0.12 0.11 0.09 0.08 0.07 0.07 0.10 0.12 0.10 0.09 0.07 0.07 0.06 0.03 0.03 0.05 0.08 0.08 0.08 0.08 0.08
0.03 0.05 0.07 0.09 0.13 0.14 0.20 0.24 0.23 0.23 0.25 0.27 0.24 0.22 0.18 0.13 0.12 0.12 0.11 0.10 0.10 0.11 0.11 0.11 0.11 0.11 0.11 0.14 0.16 0.19 0.17 0.14 0.13 0.13 0.10 0.07 0.07 0.06 0.07 0.07 0.06 0.05 0.06
0.03 0.05 0.08 0.11 0.13 0.10 0.11 0.13 0.15 0.22 0.26 0.30 0.33 0.27 0.20 0.17 0.16 0.15 0.14 0.15 0.14 0.14 0.15 0.15 0.16 0.16 0.18 0.22 0.23 0.23 0.22 0.18 0.16 0.16 0.15 0.13 0.10 0.09 0.08 0.07 0.06 0.05 0.04
0.03 0.03 0.04 0.07 0.08 0.08 0.09 0.11 0.14 0.21 0.23 0.24 0.23 0.22 0.21 0.20 0.19 0.19 0.18 0.19 0.17 0.17 0.17 0.17 0.19 0.20 0.22 0.25 0.27 0.27 0.24 0.20 0.18 0.17 0.16 0.14 0.13 0.12 0.12 0.09 0.07 0.05 0.04
0.03 0.03 0.04 0.06 0.08 0.11 0.14 0.13 0.15 0.19 0.25 0.30 0.26 0.23 0.21 0.23 0.23 0.23 0.22 0.22 0.20 0.20 0.20 0.20 0.21 0.21 0.22 0.24 0.25 0.24 0.21 0.18 0.17 0.16 0.15 0.15 0.13 0.12 0.10 0.08 0.08 0.07 0.05
0.03 0.05 0.05 0.07 0.09 0.10 0.12 0.13 0.13 0.14 0.20 0.26 0.34 0.33 0.27 0.26 0.27 0.25 0.23 0.23 0.21 0.19 0.19 0.20 0.20 0.19 0.20 0.23 0.24 0.23 0.21 0.20 0.16 0.14 0.12 0.12 0.12 0.12 0.10 0.07 0.06 0.06 0.06
0.04 0.06 0.06 0.06 0.08 0.10 0.10 0.10 0.10 0.11 0.13 0.17 0.22 0.30 0.40 0.33 0.29 0.25 0.23 0.22 0.18 0.18 0.18 0.19 0.20 0.19 0.19 0.23 0.24 0.23 0.20 0.20 0.20 0.21 0.17 0.13 0.12 0.11 0.09 0.07 0.06 0.05 0.05
0.07 0.07 0.07 0.08 0.10 0.12 0.16 0.17 0.16 0.14 0.13 0.14 0.19 0.24 0.35 0.37 0.31 0.27 0.24 0.25 0.20 0.16 0.15 0.17 0.19 0.19 0.18 0.19 0.22 0.20 0.17 0.15 0.17 0.20 0.21 0.19 0.17 0.14 0.12 0.10 0.09 0.07 0.06
0.04 0.06 0.11 0.11 0.10 0.12 0.14 0.17 0.19 0.16 0.15 0.15 0.16 0.18 0.18 0.21 0.22 0.22 0.20 0.21 0.22 0.19 0.19 0.19 0.19 0.18 0.17 0.18 0.20 0.21 0.20 0.17 0.14 0.12 0.15 0.19 0.20 0.18 0.14 0.12 0.10 0.09 0.07
0.03 0.03 0.05 0.10 0.13 0.13 0.14 0.15 0.16 0.18 0.16 0.16 0.15 0.14 0.14 0.14 0.15 0.18 0.17 0.19 0.22 0.23 0.27 0.26 0.22 0.22 0.22 0.21 0.21 0.22 0.23 0.21 0.19 0.15 0.14 0.15 0.19 0.22 0.19 0.14 0.10 0.07 0.06
MSLP
1010.37 1010.20 1010.24 1010.49 1010.88 1011.31 1011.70 1011.98 1012.14 1012.19 1012.21 1012.27 1012.43 1012.75 1013.20 1013.75 1014.34 1014.88 1015.32 1015.64 1015.83 1015.93 1015.98 1016.03 1016.12 1016.25 1016.43 1016.62 1016.82 1017.01 1017.18 1017.34 1017.49 1017.66 1017.84 1018.04 1018.24 1018.43 1018.58 1018.70 1018.80 1018.87 1018.95
1010.01 1009.95 1010.09 1010.43 1010.89 1011.37 1011.80 1012.12 1012.31 1012.40 1012.47 1012.57 1012.79 1013.14 1013.62 1014.18 1014.76 1015.28 1015.69 1015.97 1016.14 1016.23 1016.28 1016.34 1016.43 1016.56 1016.72 1016.89 1017.04 1017.17 1017.29 1017.41 1017.54 1017.72 1017.93 1018.16 1018.40 1018.62 1018.81 1018.95 1019.05 1019.13 1019.21
1009.50 1009.56 1009.82 1010.26 1010.81 1011.37 1011.87 1012.26 1012.51 1012.68 1012.81 1012.97 1013.23 1013.61 1014.09 1014.62 1015.14 1015.60 1015.95 1016.19 1016.33 1016.41 1016.48 1016.56 1016.68 1016.82 1016.98 1017.12 1017.24 1017.33 1017.40 1017.49 1017.61 1017.78 1018.01 1018.27 1018.54 1018.80 1019.01 1019.17 1019.28 1019.36 1019.44
1008.98 1009.17 1009.56 1010.10 1010.74 1011.39 1011.97 1012.43 1012.77 1013.01 1013.21 1013.43 1013.72 1014.10 1014.54 1015.01 1015.46 1015.83 1016.10 1016.29 1016.40 1016.49 1016.58 1016.71 1016.87 1017.06 1017.23 1017.37 1017.47 1017.53 1017.57 1017.63 1017.73 1017.90 1018.14 1018.42 1018.71 1018.98 1019.20 1019.37 1019.48 1019.56 1019.65
1008.61 1008.93 1009.43 1010.07 1010.79 1011.51 1012.15 1012.67 1013.07 1013.38 1013.63 1013.90 1014.20 1014.56 1014.96 1015.35 1015.71 1015.98 1016.18 1016.31 1016.40 1016.51 1016.64 1016.83 1017.06 1017.29 1017.50 1017.66 1017.76 1017.81 1017.83 1017.86 1017.95 1018.12 1018.35 1018.63 1018.92 1019.18 1019.40 1019.56 1019.66 1019.74 1019.83
1008.54 1008.97 1009.55 1010.25 1011.02 1011.76 1012.42 1012.97 1013.40 1013.74 1014.04 1014.33 1014.64 1014.97 1015.32 1015.64 1015.90 1016.10 1016.22 1016.31 1016.40 1016.53 1016.71 1016.97 1017.26 1017.55 1017.81 1018.00 1018.10 1018.15 1018.16 1018.19 1018.26 1018.41 1018.63 1018.90 1019.17 1019.41 1019.61 1019.74 1019.83 1019.90 1019.98
1008.84 1009.34 1009.96 1010.68 1011.43 1012.14 1012.78 1013.30 1013.73 1014.07 1014.38 1014.68 1014.99 1015.30 1015.61 1015.87 1016.07 1016.21 1016.28 1016.35 1016.44 1016.60 1016.83 1017.14 1017.49 1017.83 1018.13 1018.34 1018.46 1018.51 1018.52 1018.54 1018.61 1018.74 1018.94 1019.19 1019.43 1019.64 1019.80 1019.91 1019.97 1020.02 1020.10
1009.48 1010.00 1010.62 1011.30 1011.98 1012.61 1013.16 1013.62 1013.99 1014.31 1014.61 1014.91 1015.23 1015.55 1015.84 1016.07 1016.24 1016.34 1016.40 1016.46 1016.56 1016.73 1017.00 1017.34 1017.73 1018.10 1018.42 1018.64 1018.77 1018.82 1018.82 1018.84 1018.90 1019.03 1019.22 1019.43 1019.65 1019.84 1019.96 1020.04 1020.08 1020.11 1020.17
1010.32 1010.84 1011.41 1012.00 1012.56 1013.07 1013.50 1013.85 1014.15 1014.43 1014.72 1015.03 1015.37 1015.70 1016.01 1016.26 1016.43 1016.53 1016.58 1016.64 1016.75 1016.93 1017.21 1017.56 1017.94 1018.31 1018.62 1018.83 1018.95 1018.99 1019.00 1019.02 1019.07 1019.20 1019.38 1019.58 1019.78 1019.95 1020.06 1020.12 1020.14 1020.16 1020.21
1011.18 1011.67 1012.16 1012.64 1013.06 1013.42 1013.71 1013.96 1014.18 1014.42 1014.70 1015.03 1015.41 1015.79 1016.14 1016.42 1016.62 1016.75 1016.82 1016.88 1016.98 1017.16 1017.41 1017.74 1018.09 1018.43 1018.70 1018.89 1018.98 1019.01 1019.01 1019.02 1019.09 1019.21 1019.39 1019.59 1019.79 1019.96 1020.07 1020.13 1020.16 1020.18 1020.23
1011.88 1012.32 1012.73 1013.09 1013.38 1013.61 1013.78 1013.92 1014.08 1014.29 1014.58 1014.95 1015.37 1015.81 1016.22 1016.56 1016.81 1016.96 1017.05 1017.12 1017.22 1017.37 1017.59 1017.87 1018.17 1018.45 1018.67 1018.81 1018.88 1018.89 1018.87 1018.88 1018.94 1019.07 1019.26 1019.47 1019.69 1019.87 1020.01 1020.10 1020.15 1020.20 1020.26
1012.29 1012.67 1013.02 1013.29 1013.48 1013.61 1013.69 1013.77 1013.89 1014.09 1014.40 1014.81 1015.28 1015.78 1016.25 1016.65 1016.94 1017.14 1017.25 1017.33 1017.41 1017.54 1017.71 1017.93 1018.17 1018.39 1018.56 1018.66 1018.70 1018.68 1018.66 1018.66 1018.72 1018.85 1019.04 1019.27 1019.50 1019.72 1019.90 1020.04 1020.14 1020.22 1020.31
1012.38 1012.73 1013.02 1013.24 1013.38 1013.46 1013.50 1013.55 1013.66 1013.87 1014.20 1014.64 1015.15 1015.70 1016.21 1016.65 1016.99 1017.22 1017.36 1017.46 1017.54 1017.64 1017.78 1017.95 1018.14 1018.32 1018.44 1018.51 1018.52 1018.50 1018.46 1018.45 1018.50 1018.62 1018.81 1019.04 1019.30 1019.56 1019.78 1019.98 1020.14 1020.28 1020.42
1012.20 1012.53 1012.81 1013.02 1013.15 1013.22 1013.27 1013.33 1013.45 1013.67 1014.01 1014.46 1015.00 1015.55 1016.09 1016.56 1016.93 1017.19 1017.36 1017.47 1017.56 1017.66 1017.79 1017.95 1018.12 1018.27 1018.38 1018.44 1018.45 1018.42 1018.38 1018.36 1018.39 1018.49 1018.66 1018.88 1019.15 1019.42 1019.70 1019.95 1020.18 1020.39 1020.58
1011.91 1012.23 1012.52 1012.75 1012.91 1013.02 1013.09 1013.18 1013.32 1013.54 1013.88 1014.31 1014.82 1015.36 1015.88 1016.35 1016.73 1017.02 1017.22 1017.37 1017.50 1017.62 1017.77 1017.94 1018.12 1018.29 1018.42 1018.51 1018.54 1018.52 1018.49 1018.46 1018.47 1018.53 1018.66 1018.85 1019.10 1019.38 1019.68 1019.98 1020.27 1020.54 1020.80
1011.67 1011.99 1012.29 1012.56 1012.77 1012.92 1013.04 1013.16 1013.30 1013.51 1013.80 1014.18 1014.62 1015.10 1015.58 1016.03 1016.41 1016.72 1016.97 1017.17 1017.35 1017.53 1017.72 1017.94 1018.16 1018.38 1018.56 1018.70 1018.78 1018.81 1018.80 1018.78 1018.76 1018.79 1018.86 1019.00 1019.20 1019.46 1019.75 1020.08 1020.41 1020.75 1021.06
1011.62 1011.92 1012.24 1012.54 1012.79 1012.99 1013.14 1013.27 1013.40 1013.57 1013.78 1014.07 1014.42 1014.81 1015.22 1015.62 1016.00 1016.34 1016.63 1016.89 1017.14 1017.38 1017.65 1017.92 1018.21 1018.50 1018.76 1018.97 1019.13 1019.22 1019.26 1019.26 1019.24 1019.22 1019.25 1019.32 1019.46 1019.67 1019.94 1020.26 1020.62 1020.99 1021.35
1011.82 1012.10 1012.41 1012.71 1012.99 1013.21 1013.37 1013.49 1013.58 1013.68 1013.80 1013.97 1014.21 1014.49 1014.83 1015.19 1015.55 1015.91 1016.26 1016.58 1016.89 1017.21 1017.54 1017.87 1018.23 1018.58 1018.93 1019.23 1019.48 1019.66 1019.77 1019.82 1019.82 1019.79 1019.77 1019.79 1019.86 1020.02 1020.24 1020.54 1020.89 1021.27 1021.66
1012.29 1012.51 1012.78 1013.06 1013.32 1013.53 1013.68 1013.76 1013.80 1013.81 1013.83 1013.88 1014.00 1014.19 1014.45 1014.77 1015.13 1015.51 1015.90 1016.28 1016.65 1017.01 1017.38 1017.76 1018.16 1018.58 1018.99 1019.38 1019.73 1020.02 1020.23 1020.35 1020.40 1020.40 1020.37 1020.35 1020.38 1020.47 1020.65 1020.91 1021.23 1021.60 1022.00
1012.93 1013.07 1013.27 1013.49 1013.70 1013.87 1013.98 1014.01 1013.98 1013.91 1013.84 1013.80 1013.82 1013.93 1014.13 1014.42 1014.78 1015.19 1015.61 1016.02 1016.42 1016.81 1017.19 1017.58 1017.99 1018.43 1018.89 1019.36 1019.81 1020.20 1020.53 1020.76 1020.91 1020.97 1020.97 1020.96 1020.97 1021.02 1021.15 1021.36 1021.65 1021.99 1022.37
1013.66 1013.69 1013.79 1013.92 1014.06 1014.16 1014.21 1014.19 1014.11 1013.98 1013.84 1013.73 1013.69 1013.75 1013.92 1014.20 1014.57 1014.98 1015.42 1015.85 1016.24 1016.61 1016.96 1017.32 1017.70 1018.13 1018.61 1019.13 1019.66 1020.17 1020.62 1020.99 1021.26 1021.42 1021.51 1021.54 1021.57 1021.62 1021.73 1021.90 1022.15 1022.45 1022.79
1014.36 1014.29 1014.27 1014.29 1014.33 1014.36 1014.35 1014.28 1014.16 1014.00 1013.82 1013.69 1013.62 1013.67 1013.84 1014.12 1014.49 1014.92 1015.36 1015.77 1016.13 1016.45 1016.73 1017.02 1017.34 1017.72 1018.19 1018.73 1019.31 1019.92 1020.50 1021.00 1021.42 1021.72 1021.92 1022.04 1022.13 1022.21 1022.32 1022.48 1022.70 1022.96 1023.26
1015.00 1014.82 1014.68 1014.59 1014.53 1014.48 1014.41 1014.31 1014.17 1014.00 1013.83 1013.70 1013.65 1013.71 1013.89 1014.19 1014.57 1014.99 1015.41 1015.78 1016.09 1016.33 1016.53 1016.72 1016.95 1017.26 1017.68 1018.21 1018.83 1019.50 1020.18 1020.82 1021.37 1021.82 1022.16 1022.41 1022.59 1022.74 1022.89 1023.06 1023.26 1023.50 1023.76
1015.57 1015.30 1015.05 1014.85 1014.69 1014.56 1014.45 1014.32 1014.18 1014.04 1013.90 1013.81 1013.79 1013.88 1014.08 1014.38 1014.76 1015.16 1015.55 1015.87 1016.12 1016.28 1016.38 1016.48 1016.62 1016.84 1017.19 1017.68 1018.30 1019.00 1019.75 1020.48 1021.15 1021.74 1022.21 1022.59 1022.89 1023.14 1023.35 1023.57 1023.79 1024.02 1024.26
1016.11 1015.77 1015.44 1015.14 1014.90 1014.71 1014.55 1014.42 1014.29 1014.17 1014.07 1014.02 1014.04 1014.15 1014.37 1014.67 1015.03 1015.41 1015.75 1016.02 1016.20 1016.29 1016.32 1016.34 1016.39 1016.53 1016.81 1017.25 1017.82 1018.52 1019.28 1020.06 1020.81 1021.49 1022.08 1022.58 1023.00 1023.36 1023.67 1023.95 1024.22 1024.46 1024.70
1016.70 1016.32 1015.92 1015.56 1015.24 1015.00 1014.80 1014.66 1014.54 1014.44 1014.38 1014.36 1014.40 1014.53 1014.74 1015.02 1015.34 1015.67 1015.97 1016.19 1016.32 1016.37 1016.35 1016.31 1016.31 1016.40 1016.61 1016.98 1017.49 1018.13 1018.86 1019.63 1020.39 1021.12 1021.79 1022.39 1022.91 1023.38 1023.79 1024.16 1024.49 1024.78 1025.03
Thickness
5794 5794 5790 5787 5785 5784 5783 5783 5782 5781 5780 5779 5778 5776 5774 5772 5770 5769 5767 5765 5764 5762 5761 5760 5759 5758 5756 5755 5753 5751 5749 5747 5745 5744 5742 5740 5739 5737 5736 5734 5733 5731 5730
5800 5794 5790 5786 5783 5781 5780 5779 5778 5777 5776 5775 5774 5772 5770 5769 5767 5765 5764 5762 5761 5761 5759 5758 5757 5755 5754 5752 5750 5749 5747 5745 5743 5742 5741 5739 5737 5736 5734 5732 5731 5730 5728
5800 5794 5789 5785 5781 5778 5777 5775 5774 5773 5772 5770 5769 5768 5767 5765 5764 5762 5761 5759 5759 5758 5757 5756 5754 5753 5751 5750 5748 5746 5745 5743 5741 5740 5739 5737 5735 5734 5733 5731 5730 5728 5727
5798 5792 5787 5783 5779 5776 5773 5771 5770 5769 5767 5766 5765 5764 5762 5761 5760 5759 5757 5756 5755 5755 5754 5753 5751 5750 5749 5747 5746 5744 5743 5741 5740 5738 5737 5735 5734 5733 5731 5730 5728 5727 5725
5794 5789 5785 5780 5777 5773 5770 5768 5766 5764 5763 5761 5760 5759 5758 5757 5756 5755 5754 5752 5752 5751 5750 5750 5748 5747 5746 5745 5744 5742 5741 5739 5737 5736 5735 5734 5733 5731 5730 5728 5727 5725 5724
5790 5786 5782 5778 5774 5770 5767 5765 5763 5761 5760 5758 5756 5754 5753 5753 5752 5751 5750 5749 5748 5748 5747 5746 5745 5744 5743 5742 5741 5740 5739 5737 5736 5734 5733 5732 5731 5729 5728 5726 5725 5724 5722
5785 5782 5778 5775 5771 5768 5764 5762 5760 5758 5757 5755 5753 5751 5750 5749 5748 5747 5746 5746 5745 5744 5743 5742 5742 5741 5740 5740 5739 5738 5737 5736 5734 5733 5731 5730 5729 5728 5726 5725 5724 5722 5721
5781 5778 5774 5771 5768 5765 5762 5759 5757 5755 5753 5752 5750 5748 5747 5745 5744 5744 5743 5742 5742 5741 5740 5739 5738 5738 5737 5737 5736 5736 5736 5735 5733 5731 5730 5728 5728 5726 5725 5724 5722 5721 5720
5776 5773 5769 5766 5763 5761 5758 5756 5754 5752 5750 5749 5748 5746 5744 5742 5741 5740 5740 5739 5738 5737 5736 5736 5735 5735 5734 5734 5734 5734 5733 5733 5731 5730 5728 5727 5726 5725 5723 5722 5721 5720 5718
5769 5767 5764 5761 5760 5757 5754 5752 5750 5749 5747 5746 5744 5743 5741 5739 5739 5738 5737 5736 5735 5734 5733 5732 5732 5732 5731 5731 5731 5731 5731 5730 5729 5728 5727 5726 5725 5724 5722 5721 5719 5718 5717
5761 5760 5759 5757 5755 5753 5750 5748 5746 5745 5744 5742 5741 5739 5737 5736 5736 5735 5734 5733 5732 5732 5730 5729 5729 5728 5728 5728 5728 5728 5728 5727 5726 5726 5725 5725 5723 5722 5720 5719 5718 5716 5715
5754 5754 5754 5752 5750 5748 5746 5744 5742 5741 5739 5738 5737 5736 5734 5732 5731 5731 5730 5729 5729 5729 5728 5727 5726 5725 5725 5725 5725 5725 5725 5724 5724 5723 5723 5722 5721 5720 5719 5717 5716 5714 5713
5750 5749 5748 5747 5746 5744 5743 5741 5739 5737 5735 5734 5732 5731 5730 5729 5727 5727 5726 5725 5725 5725 5724 5723 5723 5722 5721 5721 5721 5722 5722 5721 5721 5720 5720 5720 5720 5718 5716 5715 5713 5712 5711
5744 5743 5743 5743 5741 5739 5738 5737 5735 5733 5731 5730 5728 5727 5726 5725 5723 5722 5722 5721 5721 5721 5720 5719 5719 5718 5718 5717 5718 5718 5718 5718 5718 5718 5718 5718 5717 5716 5714 5713 5711 5710 5709
5737 5737 5737 5738 5736 5734 5732 5730 5729 5729 5728 5726 5725 5723 5722 5721 5720 5719 5718 5717 5717 5716 5716 5715 5715 5714 5714 5714 5714 5715 5715 5715 5715 5715 5715 5715 5714 5713 5712 5710 5708 5707 5705
5730 5730 5730 5730 5730 5729 5727 5724 5723 5722 5721 5721 5720 5719 5718 5717 5717 5716 5715 5714 5713 5712 5711 5711 5711 5710 5710 5710 5710 5710 5711 5711 5711 5712 5711 5711 5711 5710 5708 5707 5705 5703 5701
5724 5724 5724 5724 5723 5722 5720 5719 5716 5715 5714 5714 5714 5713 5712 5712 5712 5711 5710 5710 5709 5708 5707 5706 5706 5705 5705 5705 5705 5706 5706 5706 5706 5707 5706 5706 5706 5705 5703 5702 5700 5698 5697
5716 5716 5716 5717 5715 5714 5713 5711 5710 5709 5709 5708 5707 5707 5706 5706 5706 5705 5705 5705 5704 5703 5702 5702 5701 5701 5700 5700 5700 5700 5701 5700 5701 5701 5701 5700 5700 5699 5698 5697 5695 5693 5691
5708 5708 5707 5708 5707 5707 5706 5705 5704 5703 5702 5701 5701 5701 5701 5700 5701 5700 5700 5700 5699 5699 5698 5698 5697 5697 5695 5695 5694 5694 5693 5693 5694 5694 5694 5694 5693 5693 5692 5691 5689 5687 5685
5700 5699 5699 5699 5698 5698 5698 5697 5695 5696 5695 5694 5694 5694 5694 5696 5696 5695 5695 5695 5694 5694 5694 5694 5693 5693 5691 5690 5688 5686 5685 5686 5686 5687 5687 5687 5686 5685 5685 5683 5681 5679 5677
5690 5690 5690 5689 5689 5689 5689 5688 5687 5686 5686 5686 5686 5687 5687 5689 5689 5688 5688 5688 5688 5689 5689 5690 5689 5687 5686 5684 5680 5676 5676 5677 5678 5678 5679 5679 5679 5678 5677 5675 5673 5671 5669
5680 5680 5681 5681 5680 5681 5682 5681 5681 5679 5678 5679 5680 5680 5681 5682 5682 5682 5682 5682 5683 5683 5683 5684 5684 5683 5681 5680 5677 5672 5668 5667 5669 5670 5670 5671 5671 5670 5668 5666 5664 5662 5661
5670 5671 5672 5671 5672 5672 5673 5673 5673 5671 5671 5671 5671 5671 5672 5673 5674 5676 5677 5677 5677 5678 5678 5678 5679 5680 5677 5675 5675 5672 5667 5664 5661 5660 5661 5662 5662 5660 5659 5657 5654 5652 5651
5660 5662 5663 5662 5662 5663 5664 5665 5664 5663 5662 5661 5661 5661 5663 5664 5666 5667 5667 5669 5670 5670 5671 5673 5673 5674 5674 5671 5669 5669 5669 5667 5661 5654 5652 5652 5652 5650 5649 5647 5645 5643 5641
5650 5651 5651 5652 5653 5653 5655 5656 5656 5655 5653 5652 5652 5653 5654 5654 5656 5658 5659 5661 5662 5663 5664 5665 5666 5667 5669 5667 5665 5663 5661 5660 5659 5654 5647 5644 5642 5640 5639 5637 5635 5633 5631
5641 5641 5642 5642 5642 5642 5644 5645 5645 5644 5643 5642 5641 5642 5642 5644 5646 5647 5649 5651 5653 5653 5654 5656 5657 5660 5661 5661 5660 5659 5658 5655 5653 5650 5645 5639 5634 5629 5628 5626 5625 5622 5620